This demonstration page uses our WeatherBlox Daily Observations layout. Learn more.

Left ArrowRight Arrow

Hourly Observations for June 30, 2016

Temp ( °F °C ) Dew Point ( °F °C ) Humidity (%) Winds ( mph kmh ) Pressure ( in mb ) Visibility ( mi km ) Precip ( " mm )
12:53 am 00:53 Clear 80 26.7 51 10.6 37 37 N 3 6 29.82 1010 10 16 0.00 0.00
1:53 am 01:53 Clear 76 24.4 54 12.2 47 47 NNW 5 7 29.82 1010 10 16 0.00 0.00
2:53 am 02:53 Clear 77 25 53 11.7 43 43 N 3 6 29.83 1010 10 16 0.00 0.00
3:53 am 03:53 Clear 73 22.8 55 12.8 53 53 NNW 3 6 29.83 1010 10 16 0.00 0.00
4:53 am 04:53 Clear 77 25 51 10.6 40 40 NNW 5 7 29.83 1010 10 16 0.00 0.00
5:53 am 05:53 Sunny 80 26.7 45 7.2 29 29 NNW 8 13 29.83 1010 10 16 0.00 0.00
6:53 am 06:53 Sunny 83 28.3 45 7.2 26 26 NNW 10 17 29.83 1010 10 16 0.00 0.00
7:53 am 07:53 Sunny 85 29.4 46 7.8 26 26 NNW 14 22 29.83 1010 10 16 0.00 0.00
8:53 am 08:53 Sunny 87 30.6 47 8.3 25 25 N 16 26 29.83 1010 10 16 0.00 0.00
9:53 am 09:53 Sunny 91 32.8 48 8.9 23 23 N 14 22 29.82 1010 10 16 0.00 0.00
10:53 am 10:53 Sunny 94 34.4 49 9.4 21 21 N 12 19 29.81 1009 10 16 0.00 0.00
11:53 am 11:53 Sunny 96 35.6 49 9.4 20 20 NNW 14 22 29.79 1009 10 16 0.00 0.00
12:53 pm 12:53 Sunny 100 37.8 50 10 18 18 N 14 22 29.77 1008 10 16 0.00 0.00
1:53 pm 13:53 Sunny 102 38.9 51 10.6 18 18 N 9 15 29.75 1008 10 16 0.00 0.00
2:53 pm 14:53 Sunny 105 40.6 44 6.7 13 13 N 10 17 29.73 1007 10 16 0.00 0.00
3:53 pm 15:53 Sunny 107 41.7 40 4.4 10 10 NNE 9 15 29.72 1006 10 16 0.00 0.00
4:53 pm 16:53 Sunny 107 41.7 38 3.3 9 9 NNE 14 22 29.70 1006 10 16 0.00 0.00
5:53 pm 17:53 Sunny 107 41.7 36 2.2 9 9 N 8 13 29.68 1005 10 16 0.00 0.00
6:53 pm 18:53 Sunny 106 41.1 41 5 11 11 N 6 9 29.67 1005 10 16 0.00 0.00
7:53 pm 19:53 Sunny 102 38.9 48 8.9 16 16 Calm 29.67 1005 10 16 0.00 0.00
8:53 pm 20:53 Clear 96 35.6 50 10 21 21 NNW 7 11 29.67 1005 10 16 0.00 0.00
9:53 pm 21:53 Clear 94 34.4 49 9.4 21 21 N 10 17 29.70 1006 10 16 0.00 0.00
10:53 pm 22:53 Clear 90 32.2 49 9.4 24 24 N 8 13 29.72 1007 10 16 0.00 0.00
11:53 pm 23:53 Clear 87 30.6 48 8.9 26 26 NNW 5 7 29.73 1007 10 16 0.00 0.00

Powered by AerisWeather